Regional Weather Roundup
Issued by NWS

Home | Current Version | Previous Version | Graphics & Text | Print | Product List | Glossary Off
Versions: 1 2 3 4 5 6 7 8 9 10 11 12 13 14 15 16 17 18 19 20 21 22 23 24 25 26 27 28 29 30 31 32 33 34 35 36 37 38 39 40 41 42 43 44 45 46 47 48 49 50

589
ASUS43 KTOP 310008
RWRKS

WEATHER ROUNDUP FOR KANSAS
NATIONAL WEATHER SERVICE GOODLAND KS
700 PM CDT MON MAY 30 2016

NOTE:  "FAIR" INDICATES FEW OR NO CLOUDS BELOW 12,000 FEET WITH NO
SIGNIFICANT WEATHER AND/OR OBSTRUCTIONS TO VISIBILITY.

KSZ001>006-013>018-027>032-041>047-310100-
NORTHWEST KANSAS

CITY           SKY/WX    TMP DP  RH WIND       PRES   REMARKS
GOODLAND       CLOUDY    79  54  41 SW10      29.85R
6HR MIN TEMP:  75; 6HR MAX TEMP:  84;

HAYS           SUNNY     81  57  44 S18       29.86S
HILL CITY      SUNNY     82  55  39 S14G22    29.83F
6HR MIN TEMP:  81; 6HR MAX TEMP:  86;

RUSSELL        SUNNY     79  61  53 S12       29.86F
6HR MIN TEMP:  78; 6HR MAX TEMP:  82; 6HR PCP: TRACE;

$$

KSZ061>065-074>080-084>089-310100-
SOUTHWEST KANSAS

CITY           SKY/WX    TMP DP  RH WIND       PRES   REMARKS
DODGE CITY     SUNNY     78  53  41 S12       29.88S
6HR MIN TEMP:  77; 6HR MAX TEMP:  82;

ELKHART          N/A     81  58  45 S17         N/A
GARDEN CITY    CLOUDY    80  50  34 S20G25    29.86S
6HR MIN TEMP:  80; 6HR MAX TEMP:  85;

GREAT BEND     SUNNY     79  55  44 S14       29.87S
LIBERAL        CLOUDY    81  52  36 S15       29.89S
PRATT          SUNNY     78  55  45 SE13      29.89F
6HR MIN TEMP:  76; 6HR MAX TEMP:  80;

$$

KSZ066>073-081>083-090>101-310100-
SOUTHEAST KANSAS

CITY           SKY/WX    TMP DP  RH WIND       PRES   REMARKS
CHANUTE        SUNNY     74  61  63 SE16      29.96F
6HR MIN TEMP:  74; 6HR MAX TEMP:  79;

COFFEYVILLE    LGT RAIN  71  65  81 E10       29.96F
6HR MIN TEMP:  70; 6HR MAX TEMP:  77; 6HR PCP:  0.06;

HUTCHINSON     SUNNY     81  59  47 SE18      29.89F
6HR MIN TEMP:  80; 6HR MAX TEMP:  85;

MEDICINE LODGE   N/A     82  56  40 SE10G20   29.87F
NEWTON         SUNNY     77  57  50 SE16G22   29.94F
PARSONS        MOSUNNY   75  63  66 SE9       29.98F
6HR MIN TEMP:  69; 6HR MAX TEMP:  77; 6HR PCP: TRACE;

WICHITA INTL   MOSUNNY   78  62  57 SE14      29.90F
6HR MIN TEMP:  78; 6HR MAX TEMP:  83;

WICHITA JABRA  SUNNY     76  64  66 SE16      29.91F
6HR MIN TEMP:  75; 6HR MAX TEMP:  82;

WICHITA MCCONL MOSUNNY   77  63  63 SE17      29.91F
WINFIELD       MOSUNNY   75  62  64 SE16G23   29.93F
6HR MIN TEMP:  75; 6HR MAX TEMP:  81;

$$

KSZ007>012-019>026-033>040-048>060-102>105-310100-
NORTHEAST KANSAS

CITY           SKY/WX    TMP DP  RH WIND       PRES   REMARKS
CONCORDIA      SUNNY     80  59  48 S14       29.87S
6HR MIN TEMP:  76; 6HR MAX TEMP:  82;

EMPORIA        SUNNY     77  60  55 S18       29.93F
6HR MIN TEMP:  77; 6HR MAX TEMP:  83;

LAWRENCE       SUNNY     78  64  61 S17       29.93F
6HR MIN TEMP:  78; 6HR MAX TEMP:  85;

MANHATTAN      SUNNY     81  62  52 S17G24    29.88F
6HR MIN TEMP:  81; 6HR MAX TEMP:  86;

MARYSVILLE     MOSUNNY   79  61  53 S8G20     29.87F
OLATHE IND     SUNNY     75  60  59 SE12      29.96F
6HR MIN TEMP:  67; 6HR MAX TEMP:  83; 6HR PCP:  0.04;

OLATHE EXE     MOSUNNY   73  61  65 S10       29.97S
6HR MIN TEMP:  63; 6HR MAX TEMP:  80; 6HR PCP:  0.03;

SALINA         SUNNY     81  62  52 S17       29.88S
6HR MIN TEMP:  81; 6HR MAX TEMP:  85;

TOPEKA BILLARD SUNNY     79  63  57 SE14      29.91F
6HR MIN TEMP:  79; 6HR MAX TEMP:  85;

TOPEKA FORBES  SUNNY     80  59  48 S13       29.92F
6HR MIN TEMP:  80; 6HR MAX TEMP:  86;

$$




USA.gov is the U.S. government's official web portal to all federal, state and local government web resources and services.